Wind_Speed
20 20 19 18 19 19 19 19 19 18 18 18 18 18 18 18 17 16 17 16 15 16 15 14 15 15 15 15 14 14 14 12 12 13 13 12 11 10 11 10 9 9 8 8
19 18 18 19 20 20 20 19 18 18 16 17 18 18 18 19 18 17 17 17 17 17 16 16 16 17 16 14 14 14 14 13 12 12 12 12 11 10 10 10 10 9 8 8
19 17 19 21 21 21 20 19 19 18 17 19 20 20 20 20 19 18 18 18 18 17 16 17 17 17 17 15 15 15 14 14 14 13 13 12 11 10 10 10 10 10 10 9
19 19 20 21 21 20 19 19 19 19 20 20 21 21 20 21 20 19 19 19 19 18 18 18 18 17 17 16 15 15 15 14 13 13 13 12 11 11 10 10 10 10 10 11
18 19 20 20 19 19 19 19 20 20 21 21 21 22 21 21 21 20 20 20 20 19 19 18 18 17 16 15 15 15 14 13 13 13 13 12 11 10 10 10 10 10 10 12
17 18 19 18 18 19 18 20 21 22 23 23 22 23 22 21 19 19 19 20 20 19 19 19 18 18 16 15 16 15 14 12 12 12 12 11 11 10 10 10 10 10 11 11
17 17 17 17 17 18 20 20 22 24 25 23 22 23 20 19 19 19 19 19 20 19 18 18 18 17 17 16 16 14 13 13 12 12 12 11 11 11 11 11 11 11 11 11
17 17 17 18 18 18 19 20 21 23 24 23 23 23 20 19 18 18 18 19 19 19 19 19 19 17 17 15 15 14 14 13 13 13 13 12 12 11 12 12 11 11 11 11
18 18 18 18 19 19 21 20 20 22 23 23 24 23 21 18 16 18 19 19 20 19 20 20 19 16 15 15 15 15 13 13 14 14 13 13 12 12 12 12 12 12 11 11
20 19 19 19 19 19 20 21 22 23 24 24 24 23 21 19 18 18 19 20 20 20 19 19 19 18 16 17 17 16 15 15 15 14 14 13 13 13 13 13 13 13 13 13
21 21 21 21 21 20 21 22 23 23 24 24 23 22 21 20 19 19 19 20 20 19 19 19 20 18 18 18 17 17 16 15 15 15 14 14 14 14 13 14 14 14 14 14
23 22 22 22 22 21 21 21 24 25 25 24 24 21 19 19 19 19 20 19 19 18 19 19 18 18 18 19 18 17 17 16 16 16 15 15 14 14 14 14 14 14 14 14
23 24 23 23 24 23 23 23 24 25 25 26 25 22 20 20 19 19 20 20 21 21 20 20 19 19 20 19 19 18 17 17 16 16 16 15 15 16 16 16 16 16 16 15
24 25 25 24 24 24 24 25 26 26 27 26 25 23 21 22 21 21 21 20 20 21 21 20 20 20 19 19 19 18 18 18 17 17 17 17 16 16 16 17 17 17 17 17
25 26 25 24 24 25 25 25 26 27 27 27 24 23 22 22 23 23 22 22 22 22 22 22 22 21 20 20 20 19 19 19 18 18 18 18 18 18 17 18 18 18 17 17
26 26 25 25 25 26 27 25 25 25 25 26 24 23 23 23 23 23 23 23 23 22 21 21 22 21 21 20 20 20 20 20 20 20 19 19 19 19 19 19 18 18 18 19
26 26 25 26 26 27 28 26 25 25 25 25 25 24 24 24 25 24 23 22 22 23 22 21 20 20 21 21 21 20 21 21 21 21 21 21 21 20 20 20 20 20 20 21
26 25 26 26 26 28 26 26 26 26 27 27 27 25 25 25 25 24 23 23 23 23 22 22 22 22 23 23 22 22 22 21 22 22 22 23 23 22 23 22 21 21 22 22
27 27 27 27 27 27 26 26 27 27 27 27 27 27 27 26 26 25 25 24 23 23 23 23 23 23 24 24 23 23 23 23 22 23 24 24 24 24 23 23 23 23 22 22
28 29 29 28 28 27 26 25 26 27 28 27 27 27 27 26 25 25 25 25 25 25 25 25 25 25 25 25 25 24 24 24 25 25 25 25 25 24 24 24 23 23 23 23
27 28 29 29 29 29 27 27 27 28 27 26 27 28 28 27 26 27 26 26 26 26 26 26 26 26 26 26 26 26 25 25 25 26 26 26 25 25 25 24 24 24 24 23
27 27 27 28 29 29 29 28 28 27 27 27 27 28 29 29 28 28 28 27 27 27 28 28 28 28 28 28 27 27 27 27 26 26 26 26 25 25 25 25 25 25 24 24
26 27 27 28 27 27 27 27 26 26 26 27 27 27 28 28 29 29 29 29 29 28 28 29 30 29 29 29 28 28 27 27 26 26 25 25 26 26 26 26 26 25 25 25
24 26 27 27 27 27 27 25 25 26 27 28 28 28 27 28 28 29 30 30 30 29 30 30 31 30 29 29 28 27 27 27 27 27 27 27 27 28 28 28 27 27 27 26
23 25 26 27 26 28 28 26 25 25 27 29 29 29 29 29 29 29 29 29 30 30 30 31 29 29 29 28 28 27 28 28 28 28 28 28 28 29 29 29 28 28 28 27
21 24 26 25 25 25 25 26 26 26 28 28 28 28 29 28 28 28 29 29 30 31 30 29 29 29 29 28 27 28 29 28 28 28 28 28 28 29 29 29 28 28 27 27
Wind_Direction
237 236 235 234 234 231 229 228 227 224 227 235 240 246 243 248 253 261 269 276 281 286 289 289 288 287 289 292 295 296 295 299 299 298 294 290 289 284 275 272 273 276 280 274
235 235 233 231 230 228 227 226 224 224 229 239 244 243 245 242 247 255 262 268 275 281 284 286 288 283 285 289 293 295 295 295 296 297 296 289 285 279 273 269 269 271 269 266
234 232 231 231 230 230 228 227 225 228 231 238 243 242 240 240 244 250 257 265 273 278 280 281 284 284 284 288 291 297 293 295 295 295 293 292 284 274 273 268 269 267 265 264
233 232 232 232 231 230 230 229 230 231 233 237 239 241 237 242 247 252 258 265 271 273 276 278 282 284 284 284 286 290 289 290 292 292 288 286 283 279 274 268 268 270 269 267
236 235 234 232 230 230 231 228 228 229 233 236 237 242 240 242 249 254 259 265 270 273 274 275 279 283 280 278 281 284 284 284 286 288 288 284 280 280 275 270 268 269 271 270
239 237 236 234 229 231 230 229 227 228 233 236 238 242 242 242 249 255 260 263 268 269 270 272 275 279 275 273 276 277 277 279 282 285 284 280 277 277 278 274 270 269 268 267
235 233 234 234 231 230 229 229 228 228 232 237 239 243 245 246 250 257 262 267 270 269 269 272 275 275 273 270 272 271 272 273 277 279 278 274 275 277 275 277 273 268 265 264
235 231 234 236 235 234 230 230 232 232 235 237 241 245 249 251 252 257 263 269 271 270 269 269 272 272 272 270 270 268 271 273 275 276 274 271 272 274 272 268 270 272 267 264
239 235 236 239 235 233 230 230 232 234 237 241 242 245 250 250 253 256 261 267 270 273 269 267 267 268 270 269 265 266 269 271 272 273 274 271 272 274 272 269 268 268 271 271
240 238 234 234 233 233 234 232 230 234 238 241 242 244 249 251 255 263 268 269 274 274 273 273 271 270 268 270 267 265 268 269 268 269 269 268 270 271 271 270 269 271 269 272
239 239 235 233 231 232 232 232 236 237 238 241 243 246 250 252 253 258 263 269 272 272 272 272 272 275 275 269 267 265 267 266 265 266 265 265 265 267 269 269 271 274 273 275
238 238 237 235 234 234 235 236 237 238 239 242 246 250 252 253 253 256 259 264 268 271 271 271 272 273 274 274 269 269 269 267 264 265 266 266 267 271 273 272 273 273 274 276
235 237 237 234 234 233 234 237 239 239 242 244 249 252 249 253 256 259 261 262 267 269 270 271 271 272 272 273 272 271 272 270 268 267 268 270 271 271 271 270 271 271 272 274
237 240 240 237 237 237 237 239 240 242 245 247 249 252 252 255 257 260 260 261 266 269 268 271 272 271 271 271 271 271 271 271 270 267 268 270 271 271 270 269 269 271 272 275
235 238 241 241 239 240 242 240 239 242 246 247 247 249 251 254 259 260 260 263 267 271 269 269 270 270 272 273 272 271 272 273 271 269 268 269 270 272 272 270 269 271 274 276
236 239 242 243 242 240 240 241 242 244 246 246 246 246 250 254 258 262 263 264 267 270 271 267 267 268 272 273 272 272 271 269 267 267 268 268 269 270 271 271 270 271 273 276
238 240 242 244 244 244 240 240 243 245 245 246 248 248 250 255 257 259 265 266 270 273 276 273 268 267 270 273 273 272 270 269 267 266 267 269 270 269 270 271 272 271 273 275
239 238 239 241 242 245 245 243 243 244 245 247 249 250 251 255 256 260 263 264 267 271 275 274 271 270 270 270 272 272 271 269 268 265 266 269 270 272 271 270 272 273 274 274
239 238 239 239 241 245 245 246 246 247 247 247 248 251 252 255 257 259 261 261 263 266 270 272 271 270 271 272 273 270 271 270 269 267 268 268 270 271 271 270 271 273 273 272
239 238 240 240 241 243 243 244 245 247 248 247 248 250 252 256 258 261 261 261 263 265 267 269 271 271 272 272 273 273 274 274 272 269 266 266 267 269 270 270 272 272 271 272
238 239 240 241 242 243 244 245 246 249 251 251 252 253 255 258 261 262 261 262 263 265 267 269 272 272 272 273 272 272 272 273 275 270 267 267 268 268 268 270 272 272 270 270
239 240 241 243 244 244 246 248 248 251 252 252 254 254 256 258 260 262 262 264 264 265 268 270 272 272 271 272 271 271 271 272 275 274 270 268 269 269 270 270 270 270 270 271
241 240 241 244 246 247 247 248 248 250 252 255 256 257 258 260 260 261 262 263 266 267 269 270 271 271 268 270 272 271 271 271 273 274 271 270 271 273 274 272 271 271 273 274
242 241 241 243 246 247 247 246 248 251 254 256 258 259 261 261 260 260 263 263 265 268 270 271 271 269 269 271 272 271 269 268 271 272 273 272 272 273 273 274 273 273 274 276
243 243 242 244 249 250 250 251 251 253 256 257 260 264 265 264 262 262 264 264 266 268 269 269 270 271 271 270 269 270 269 268 269 271 273 274 272 273 273 273 274 275 274 273
243 243 242 244 248 251 251 254 255 257 259 260 263 266 267 265 265 267 268 268 267 267 268 269 270 270 271 270 270 269 268 269 269 270 272 273 273 272 272 273 273 273 273 273
Height
5844 5846 5848 5851 5852 5854 5856 5858 5860 5862 5863 5864 5865 5867 5868 5869 5870 5871 5872 5873 5873 5874 5874 5874 5873 5871 5871 5870 5869 5868 5867 5866 5864 5863 5862 5861 5860 5860 5860 5860 5860 5859 5859 5859
5840 5842 5844 5845 5846 5848 5850 5852 5855 5857 5858 5859 5860 5862 5863 5864 5865 5867 5867 5868 5870 5870 5870 5870 5869 5867 5867 5866 5866 5864 5862 5862 5861 5860 5859 5859 5858 5857 5857 5857 5857 5857 5857 5857
5835 5838 5839 5840 5841 5843 5845 5848 5850 5852 5853 5854 5856 5857 5858 5859 5860 5862 5863 5864 5865 5866 5866 5866 5865 5864 5863 5862 5862 5861 5859 5858 5858 5857 5856 5856 5855 5854 5854 5854 5854 5854 5854 5854
5830 5832 5833 5835 5837 5839 5841 5844 5846 5847 5848 5849 5851 5852 5854 5855 5856 5857 5858 5860 5860 5861 5861 5861 5861 5860 5859 5857 5857 5856 5856 5855 5854 5853 5853 5852 5852 5851 5851 5851 5851 5851 5851 5851
5826 5828 5829 5830 5833 5835 5837 5839 5841 5842 5843 5845 5846 5847 5850 5850 5851 5853 5854 5855 5856 5856 5856 5856 5856 5855 5854 5853 5852 5852 5852 5851 5850 5850 5849 5849 5848 5848 5847 5847 5847 5847 5848 5848
5821 5823 5824 5826 5829 5830 5832 5834 5835 5837 5838 5840 5842 5842 5844 5846 5847 5848 5849 5850 5851 5850 5851 5851 5851 5850 5849 5849 5848 5848 5847 5847 5847 5846 5846 5845 5845 5844 5844 5844 5843 5844 5844 5844
5817 5818 5820 5821 5823 5825 5827 5829 5830 5831 5832 5835 5837 5837 5840 5842 5843 5844 5845 5845 5845 5845 5845 5846 5846 5846 5846 5845 5844 5844 5843 5843 5843 5843 5842 5841 5841 5841 5841 5840 5840 5840 5840 5841
5812 5815 5816 5817 5819 5820 5822 5824 5826 5828 5829 5831 5832 5832 5836 5837 5838 5839 5840 5840 5840 5841 5841 5841 5841 5841 5841 5841 5840 5840 5839 5839 5839 5838 5838 5838 5837 5837 5837 5837 5837 5837 5837 5837
5807 5810 5812 5813 5815 5816 5818 5819 5822 5823 5824 5826 5827 5829 5830 5831 5833 5833 5834 5834 5835 5835 5835 5836 5836 5836 5836 5836 5836 5835 5835 5835 5835 5834 5834 5834 5833 5833 5833 5833 5833 5833 5833 5834
5802 5805 5808 5809 5810 5812 5814 5815 5817 5818 5819 5821 5823 5824 5826 5827 5828 5829 5829 5829 5829 5830 5830 5831 5831 5831 5831 5832 5831 5830 5831 5831 5830 5830 5830 5830 5830 5829 5829 5829 5829 5829 5830 5830
5796 5799 5802 5804 5805 5807 5809 5811 5811 5813 5814 5816 5817 5821 5822 5823 5823 5824 5824 5824 5824 5825 5825 5826 5826 5826 5826 5825 5825 5826 5826 5825 5826 5825 5825 5825 5825 5825 5825 5825 5825 5826 5826 5826
5790 5793 5795 5798 5800 5802 5804 5805 5807 5809 5810 5811 5813 5818 5817 5817 5819 5819 5819 5819 5819 5820 5820 5821 5821 5821 5820 5820 5820 5820 5820 5820 5821 5821 5821 5821 5820 5820 5820 5820 5821 5821 5822 5822
5784 5787 5789 5792 5796 5797 5798 5800 5801 5803 5805 5806 5807 5813 5811 5812 5813 5814 5814 5814 5814 5815 5816 5816 5816 5816 5816 5816 5816 5816 5816 5816 5816 5816 5816 5816 5816 5816 5816 5816 5816 5817 5817 5817
5780 5781 5784 5787 5789 5791 5793 5795 5796 5798 5799 5800 5802 5805 5806 5807 5807 5808 5809 5809 5809 5810 5810 5810 5810 5810 5811 5810 5810 5811 5811 5811 5811 5811 5811 5811 5811 5811 5811 5811 5811 5811 5811 5812
5774 5776 5777 5780 5782 5784 5786 5788 5790 5792 5793 5795 5797 5798 5800 5801 5802 5803 5803 5804 5804 5804 5804 5804 5804 5804 5805 5805 5805 5805 5805 5805 5805 5806 5806 5806 5806 5806 5806 5806 5806 5806 5806 5806
5768 5770 5772 5774 5776 5777 5780 5782 5784 5785 5787 5788 5791 5793 5794 5795 5796 5796 5797 5797 5798 5798 5798 5798 5798 5798 5799 5799 5799 5799 5800 5800 5800 5800 5800 5800 5800 5800 5800 5800 5800 5800 5800 5800
5762 5764 5766 5768 5770 5771 5773 5777 5778 5780 5781 5783 5784 5787 5788 5788 5789 5790 5790 5790 5791 5792 5792 5792 5792 5792 5793 5794 5793 5793 5793 5793 5794 5794 5794 5794 5794 5794 5794 5794 5794 5794 5794 5793
5755 5757 5759 5761 5764 5764 5769 5770 5772 5773 5774 5776 5778 5780 5781 5782 5784 5784 5784 5785 5786 5786 5786 5786 5786 5786 5787 5787 5787 5786 5787 5787 5787 5787 5787 5787 5787 5787 5787 5787 5787 5787 5787 5786
5748 5751 5752 5754 5756 5758 5762 5763 5764 5766 5768 5770 5771 5773 5775 5776 5777 5778 5778 5779 5780 5780 5780 5780 5780 5780 5780 5780 5780 5779 5779 5779 5780 5779 5779 5779 5779 5780 5779 5780 5779 5779 5779 5779
5741 5743 5746 5747 5749 5751 5756 5757 5757 5760 5761 5763 5765 5766 5768 5769 5770 5772 5772 5772 5773 5773 5774 5774 5773 5773 5773 5773 5773 5772 5772 5772 5771 5771 5772 5772 5771 5772 5772 5772 5772 5771 5771 5771
5734 5736 5738 5740 5741 5744 5748 5749 5751 5754 5756 5757 5758 5759 5760 5762 5763 5764 5765 5765 5765 5766 5766 5766 5766 5766 5766 5765 5765 5765 5765 5765 5765 5764 5764 5763 5764 5764 5764 5764 5764 5764 5763 5763
5726 5729 5731 5733 5735 5739 5740 5742 5744 5746 5748 5749 5750 5752 5753 5754 5755 5756 5757 5757 5757 5758 5758 5758 5758 5757 5757 5757 5757 5757 5757 5757 5757 5756 5756 5756 5756 5756 5756 5756 5756 5756 5755 5756
5719 5722 5724 5726 5729 5731 5732 5734 5736 5737 5739 5741 5742 5744 5745 5746 5747 5748 5749 5749 5749 5749 5750 5750 5749 5748 5748 5748 5748 5748 5749 5749 5749 5749 5748 5748 5748 5748 5748 5748 5747 5747 5747 5748
5713 5715 5717 5719 5720 5722 5724 5726 5728 5730 5732 5733 5734 5735 5736 5737 5738 5740 5740 5741 5741 5741 5741 5741 5740 5739 5740 5740 5740 5740 5740 5740 5740 5741 5741 5740 5740 5740 5740 5740 5740 5740 5739 5739
5708 5709 5710 5712 5714 5715 5717 5719 5721 5723 5723 5724 5726 5727 5728 5728 5730 5731 5732 5732 5732 5732 5732 5732 5731 5731 5730 5731 5731 5731 5731 5732 5732 5732 5732 5732 5732 5732 5732 5731 5731 5731 5731 5731
5701 5703 5704 5706 5708 5709 5711 5713 5714 5715 5716 5717 5718 5719 5719 5719 5720 5722 5722 5723 5723 5724 5723 5722 5722 5722 5722 5721 5721 5722 5722 5723 5723 5724 5724 5724 5724 5723 5723 5723 5723 5723 5723 5723